QPF
0.00 0.00 0.00 0.00 0.00 0.00 0.00 0.00 0.00 0.00 0.00 0.00 0.00 0.00 0.00 0.00 0.00 0.00 0.00 0.00 0.00 0.00
0.00 0.00 0.00 0.00 0.00 0.00 0.00 0.00 0.00 0.00 0.00 0.00 0.00 0.00 0.00 0.00 0.00 0.00 0.00 0.00 0.00 0.00
0.00 0.00 0.00 0.00 0.00 0.00 0.00 0.00 0.00 0.00 0.00 0.00 0.00 0.00 0.00 0.00 0.00 0.00 0.00 0.00 0.00 0.00
0.00 0.00 0.00 0.00 0.00 0.00 0.00 0.00 0.00 0.00 0.00 0.00 0.00 0.00 0.00 0.00 0.00 0.00 0.00 0.00 0.00 0.00
0.00 0.00 0.00 0.00 0.00 0.00 0.00 0.00 0.00 0.00 0.00 0.00 0.00 0.00 0.00 0.00 0.00 0.00 0.00 0.00 0.00 0.00
0.04 0.05 0.03 0.00 0.00 0.00 0.00 0.00 0.00 0.00 0.00 0.00 0.00 0.00 0.00 0.00 0.00 0.00 0.00 0.00 0.00 0.00
0.02 0.01 0.01 0.00 0.00 0.00 0.00 0.00 0.00 0.00 0.00 0.00 0.00 0.00 0.00 0.00 0.00 0.00 0.00 0.00 0.00 0.00
0.02 0.01 0.00 0.00 0.00 0.00 0.00 0.00 0.00 0.00 0.00 0.00 0.00 0.00 0.00 0.00 0.00 0.00 0.00 0.00 0.00 0.00
0.01 0.01 0.00 0.00 0.00 0.01 0.01 0.00 0.00 0.00 0.00 0.00 0.00 0.00 0.00 0.00 0.00 0.00 0.00 0.00 0.00 0.00
0.00 0.00 0.00 0.00 0.01 0.03 0.02 0.00 0.00 0.00 0.00 0.00 0.00 0.00 0.00 0.00 0.00 0.00 0.00 0.00 0.00 0.00
0.00 0.00 0.00 0.00 0.00 0.00 0.00 0.00 0.00 0.00 0.00 0.00 0.00 0.00 0.00 0.00 0.00 0.00 0.00 0.00 0.00 0.00
0.03 0.00 0.00 0.00 0.00 0.00 0.00 0.00 0.00 0.00 0.00 0.00 0.00 0.00 0.00 0.00 0.00 0.00 0.00 0.00 0.00 0.00
0.03 0.00 0.00 0.00 0.00 0.00 0.00 0.00 0.00 0.00 0.00 0.00 0.00 0.00 0.00 0.00 0.00 0.00 0.00 0.00 0.00 0.00
0.04 0.00 0.00 0.00 0.00 0.00 0.00 0.00 0.00 0.00 0.00 0.00 0.00 0.00 0.00 0.00 0.00 0.00 0.00 0.00 0.00 0.00
MSLP
1019.99 1020.26 1020.71 1021.18 1021.65 1021.56 1022.40 1022.59 1022.71 1022.84 1022.95 1023.03 1022.93 1022.76 1022.78 1022.45 1022.26 1022.25 1022.05 1021.87 1021.73 1021.71
1020.05 1020.28 1020.74 1021.23 1021.62 1022.05 1022.46 1022.59 1022.80 1022.91 1023.08 1023.23 1023.07 1022.82 1022.79 1022.63 1022.33 1022.24 1022.14 1021.95 1021.71 1021.59
1019.89 1020.39 1020.73 1021.17 1021.56 1022.15 1022.23 1022.69 1022.60 1022.91 1023.22 1023.10 1023.17 1022.86 1022.74 1022.60 1022.34 1022.15 1022.09 1021.96 1021.83 1021.58
1020.12 1020.55 1020.95 1021.35 1021.79 1021.86 1022.23 1022.48 1022.60 1022.93 1023.03 1023.13 1023.04 1022.76 1022.63 1022.31 1022.11 1022.02 1021.96 1021.76 1021.69 1021.57
1020.34 1020.67 1021.01 1021.63 1021.88 1022.04 1022.19 1022.40 1022.62 1022.87 1022.99 1022.95 1022.87 1022.68 1022.47 1022.31 1022.14 1022.02 1021.86 1021.72 1021.66 1021.59
1020.86 1020.87 1021.10 1021.50 1022.00 1022.05 1022.30 1022.38 1022.67 1022.79 1022.87 1022.88 1022.91 1022.77 1022.56 1022.39 1022.16 1021.93 1021.93 1021.88 1021.75 1021.66
1020.83 1021.00 1021.42 1021.81 1021.89 1021.83 1022.31 1022.46 1022.73 1022.94 1022.99 1023.00 1022.83 1022.82 1022.70 1022.52 1022.15 1022.07 1021.98 1022.00 1021.98 1021.96
1020.81 1021.03 1021.67 1021.74 1021.67 1022.01 1022.30 1022.58 1022.65 1023.00 1022.96 1022.78 1022.83 1022.80 1022.71 1022.46 1022.33 1022.21 1022.06 1022.13 1022.10 1022.19
1020.71 1021.05 1021.15 1021.54 1022.05 1022.14 1022.17 1022.45 1022.75 1022.90 1022.81 1022.90 1023.03 1023.04 1022.82 1022.67 1022.42 1022.35 1022.20 1022.15 1022.19 1022.30
1020.34 1020.53 1021.02 1021.20 1021.71 1021.96 1022.40 1022.63 1022.70 1022.82 1022.86 1022.95 1023.10 1023.09 1022.80 1022.65 1022.43 1022.38 1022.23 1022.27 1022.18 1022.20
1019.95 1020.32 1020.88 1021.20 1021.75 1022.03 1022.16 1022.28 1022.52 1022.76 1022.86 1022.89 1023.06 1023.02 1022.63 1022.51 1022.29 1022.37 1022.37 1022.25 1022.28 1022.28
1019.92 1020.33 1020.84 1021.27 1021.47 1021.74 1021.95 1022.26 1022.48 1022.66 1022.76 1022.74 1022.76 1022.70 1022.41 1022.37 1022.36 1022.42 1022.45 1022.44 1022.40 1022.32
1019.83 1020.34 1020.70 1020.95 1021.28 1021.62 1021.91 1022.19 1022.44 1022.63 1022.69 1022.65 1022.48 1022.45 1022.29 1022.39 1022.57 1022.67 1022.81 1022.63 1022.40 1022.39
1020.24 1020.43 1020.57 1020.88 1021.33 1021.64 1021.86 1022.21 1022.41 1022.56 1022.53 1022.41 1022.38 1022.25 1022.32 1022.27 1022.53 1022.99 1023.04 1022.50 1022.37 1022.46
Thickness
5509 5506 5502 5499 5496 5496 5491 5490 5492 5493 5494 5495 5497 5500 5500 5504 5507 5508 5511 5512 5514 5514
5498 5496 5492 5488 5485 5481 5478 5479 5479 5480 5481 5482 5484 5488 5489 5491 5495 5497 5499 5501 5503 5504
5490 5485 5483 5479 5476 5471 5470 5467 5470 5469 5467 5469 5471 5475 5477 5480 5483 5485 5487 5488 5490 5493
5478 5474 5471 5468 5464 5463 5460 5458 5459 5458 5458 5458 5460 5463 5467 5471 5474 5475 5475 5478 5479 5480
5466 5464 5461 5457 5455 5453 5452 5450 5449 5448 5448 5450 5451 5453 5456 5459 5461 5462 5463 5465 5465 5466
5451 5452 5451 5449 5444 5445 5443 5442 5440 5440 5440 5441 5441 5443 5445 5447 5449 5451 5451 5451 5452 5452
5444 5441 5438 5435 5436 5438 5434 5434 5432 5430 5430 5431 5432 5434 5435 5437 5440 5440 5441 5440 5440 5440
5432 5430 5426 5426 5428 5426 5425 5425 5425 5423 5424 5425 5425 5426 5426 5429 5430 5430 5431 5430 5430 5429
5422 5420 5419 5418 5415 5416 5417 5417 5415 5415 5416 5417 5416 5416 5418 5419 5421 5420 5422 5422 5422 5419
5415 5415 5411 5411 5408 5408 5406 5406 5406 5407 5408 5409 5409 5409 5410 5411 5412 5412 5414 5413 5413 5410
5408 5406 5403 5402 5400 5399 5400 5401 5400 5400 5401 5402 5402 5402 5404 5404 5406 5406 5405 5404 5402 5400
5399 5396 5393 5392 5393 5393 5394 5393 5393 5393 5394 5396 5397 5397 5398 5399 5399 5398 5395 5394 5392 5391
5391 5389 5387 5387 5386 5386 5386 5385 5386 5386 5387 5388 5391 5391 5392 5392 5389 5386 5384 5385 5385 5382
5380 5380 5381 5380 5379 5378 5379 5378 5378 5379 5381 5383 5384 5385 5384 5384 5382 5377 5376 5379 5379 5376